Voltar ao catálogo

IABS R/B

AtivoGEO
NORAD 27693·ROCKET BODY·🇺🇸 United States

Lançado Mar 11, 2003 de Cape Canaveral Space Force Station

Loading…

TLE

AtualizadoSource: Space-Track

Época: Sep 13, 2026, 13:11 UTC

1 27693U 03008C   26256.54979655  .00000075  00000-0  00000-0 0  9991
2 27693  13.5354   9.6507 0028018 223.4016 136.3988  1.01117579 27519

Acompanhe IABS R/B em tempo real com AllMySat

Download on the App Store